Location: Ocean City
(38.3360°N, 75.0850°W)
Time: 04:34:34
(UTC-05:00)

Explorer 11/Cluster Stage 4 - Pass Details

Date: 23 November 2019
Orbit: 467 x 1259 km, 28.8° (Epoch: 10 December)

Event Time Altitude Azimuth Distance (km) Brightness Sun altitude
Rises 21:00:36 0° 257° (WSW) 3,110 - -50.1°
Reaches altitude 10° 21:03:07 10° 245° (WSW) 2,316 - -50.5°
Maximum altitude 21:07:50 28° 188° (S) 1,593 - -51.4°
Drops below altitude 10° 21:13:27 10° 132° (SE) 2,798 - -52.5°
Sets 21:16:48 0° 121° (ESE) 3,883 - -53.1°
